|  Orbital Elements
Epoch 2024 Mar. 31.0 TT = JDT 2460400.5
T 2023 Dec. 26.74489 TT                                 Rudenko
q   1.7506720            (2000.0)            P               Q
n   0.18921831     Peri.  306.01072     +0.98754172     -0.08400829
a   3.0048810      Node    59.15902     +0.13713155     +0.87416656
e   0.4173906      Incl.    8.91506     -0.07717700     +0.47830475
P   5.21
>From 327 observations 2013 July 14-2024 Jan. 28, mean residual 0".8.
 
 |